Weather History for Decimomannu, Italy

Change the Weather History Date:

Monday, December 3, 2012

  Actual Average Record
Temperature  
Mean Temperature 52 °F -  
Max Temperature 55 °F 59 °F 69 °F (2011)
Min Temperature 50 °F 42 °F 39 °F (2007)
Degree Days  
Heating Degree Days 12    
Growing Degree Days 2 (Base 50)    
Moisture  
Dew Point 46 °F    
Average Humidity 79    
Maximum Humidity 94    
Minimum Humidity 38    
Precipitation  
Precipitation 0.03 in 0.08 in - ()
Sea Level Pressure  
Sea Level Pressure 30.08 in    
Wind  
Wind Speed 10 mph ()    
Max Wind Speed 16 mph    
Max Gust Speed 31 mph    
Visibility 6.4 miles    
Events Rain    
Averages and records for this station are not official NWS values.
T = Trace of Precipitation, MM = Missing Value Source: Averaged Metar Reports

Daily Weather History Graph

Daily Weather History Graph

Search for Another Location

Airport:

Trip Planner

Search our weather history database for the weather conditions in past years. The results will help you decide how hot, cold, wet, or windy it might be!

Date:

Astronomy

Dec. 03, 2012 Rise Set
Actual Time 7:27 AM CET 5:00 PM CET
Civil Twilight 6:57 AM CET 5:30 PM CET
Nautical Twilight 6:23 AM CET 6:04 PM CET
Astronomical Twilight 5:51 AM CET 6:36 PM CET
Moon 9:30 PM CET (12/3) 10:42 AM CET (12/3)
Length of Visible Light 10h 33m
Length of Day
9h 33m
Waning Gibbous, 80% of the Moon is Illuminated
Dec 3
Waning Gibbous
Dec 6
Last Quarter
Dec 13
New
Dec 20
First Quarter
Dec 28
Full

Hourly Weather History & Observations

Time (CET) Temp. Dew Point Humidity Pressure Visibility Wind Dir Wind Speed Gust Speed Precip Events Conditions
1:00 AM 55 °F 36 °F 38% 29.99 in 9 mi WNW 13.8 mph - - Rain Light Rain
1:55 AM 53.6 °F 44.6 °F 72% 29.98 in 6.2 mi WNW 16.1 mph 31.1 mph N/A Rain Light Rain
2:55 AM 53.6 °F 46.4 °F 77% 29.98 in 6.2 mi WNW 15.0 mph 31.1 mph N/A Rain Light Rain
3:55 AM 51.8 °F 44.6 °F 76% 30.01 in 6.2 mi WNW 11.5 mph - N/A   Scattered Clouds
4:00 AM 52 °F 44 °F 66% 30.01 in 7 mi WNW 11.5 mph - - Rain Light Rain
4:55 AM 53.6 °F 46.4 °F 77% 30.01 in 6.2 mi WNW 12.7 mph - N/A   Scattered Clouds
5:55 AM 53.6 °F 44.6 °F 72% 30.01 in 6.2 mi WNW 13.8 mph - N/A   Scattered Clouds
6:55 AM 53.6 °F 44.6 °F 72% 30.01 in 6.2 mi NW 13.8 mph - N/A   Scattered Clouds
7:00 AM 54 °F 45 °F 63% 30.03 in 6 mi NW 13.8 mph - -   Partly Cloudy
7:55 AM 51.8 °F 48.2 °F 88% 30.04 in 6.2 mi WNW 10.4 mph - N/A   Scattered Clouds
8:55 AM 53.6 °F 44.6 °F 72% 30.06 in 6.2 mi NW 10.4 mph - N/A   Mostly Cloudy
9:55 AM 53.6 °F 46.4 °F 77% 30.09 in 6.2 mi NNW 13.8 mph - N/A   Mostly Cloudy
10:00 AM 54 °F 46 °F 65% 30.12 in 10 mi NNW 13.8 mph - -   Partly Cloudy
10:55 AM 51.8 °F 44.6 °F 76% 30.12 in 6.2 mi NW 15.0 mph - N/A   Mostly Cloudy
11:55 AM 53.6 °F 44.6 °F 72% 30.12 in 6.2 mi NW 13.8 mph - N/A   Mostly Cloudy
12:55 PM 51.8 °F 48.2 °F 88% 30.12 in 6.2 mi NW 10.4 mph - N/A   Mostly Cloudy
1:00 PM 52 °F 48 °F 83% 30.14 in 9 mi NW 10.4 mph - -   Partly Cloudy
1:55 PM 51.8 °F 50.0 °F 94% 30.12 in 6.2 mi NW 8.1 mph - N/A Rain Light Rain
2:55 PM 51.8 °F 48.2 °F 88% 30.12 in 6.2 mi NW 9.2 mph - N/A Rain Light Rain
4:00 PM 52 °F 48 °F 82% 30.13 in 7 mi NW 9.2 mph - - Rain Light Rain
5:55 PM 51.8 °F 48.2 °F 88% 30.12 in 5.0 mi NNW 4.6 mph - N/A   Mostly Cloudy
6:55 PM 51.8 °F 48.2 °F 88% 30.12 in 5.0 mi NNW 4.6 mph - N/A   Mostly Cloudy
7:00 PM 51 °F 48 °F 84% 30.13 in 5 mi NNW 4.6 mph - -   Mist
7:55 PM 51.8 °F 48.2 °F 88% 30.12 in 6.2 mi NNW 4.6 mph - N/A   Scattered Clouds
8:55 PM 50.0 °F 46.4 °F 87% 30.12 in 6.2 mi ENE 2.3 mph - N/A   Scattered Clouds
9:55 PM 50.0 °F 46.4 °F 87% 30.09 in 6.2 mi West 3.5 mph - N/A   Scattered Clouds
10:00 PM 50 °F 47 °F 86% 30.12 in 6 mi West 3.5 mph - -   Partly Cloudy
10:55 PM 50.0 °F 46.4 °F 87% 30.12 in 6.2 mi North 4.6 mph - N/A   Scattered Clouds
11:55 PM 51.8 °F 48.2 °F 88% 30.09 in 6.2 mi North 5.8 mph - N/A   Scattered Clouds